[[{"header":{"parameterUnit":"m.s-1","parameterCategory":2,"la1":30.2991,"la2":30.254,"lo1":-89.0895,"lo2":-89.0444,"dy":0.0017,"dx":0.0017,"nx":28,"ny":28,"refTime":"2024-10-01T21:00:00:Z","depth":"0","parameterNumber":2,"parameterNumberName":"U-component_of_CURRENTS"},"data":[0,0,0,0,0,0,0,0,0,0,0,0,0,0,0,0,0,0,0,0,0,0,0,0,0,0,0,0,0,0,0,0,0,0,0,0,0,0,0,0,0,0,0,0,0,0,0,0,0,0,0,0,0,0,0,0,0,0,0.2309,0.2309,0,0.2279,0.2279,0.2278,0.2199,0.2198,0.2196,0.2195,0.2071,0.2069,0.2067,0,0,0,0,0,0,0,0,0,0,0,0,0,0.234,0.2339,0.2309,0.2309,0.2309,0.2279,0.2279,0.2278,0.22,0.2198,0.2196,0.2194,0.2072,0.2069,0.2067,0,0,0,0,0,0,0,0,0,0,0,0,0,0.2318,0.2339,0.2309,0.2268,0.2264,0.228,0.2279,0.2278,0.22,0.2198,0.2196,0.2194,0.2072,0.2069,0.2067,0.2093,0,0,0.2058,0.2057,0,0,0,0,0,0,0,0,0.2319,0.2316,0.2274,0.2271,0.2267,0.2243,0.2244,0.2212,0.2201,0.2222,0.2195,0.2192,0.2123,0.2116,0.2113,0.2087,0.2082,0.2058,0.2056,0.2055,0.2054,0,0,0,0,0,0,0,0.2321,0.2318,0.2295,0.2274,0.227,0.2265,0.2259,0.2238,0.2182,0.222,0.2215,0.2216,0.2119,0.2116,0.2109,0.208,0.2058,0.2055,0.2053,0.2052,0.2068,0.207,0,0,0,0,0,0,0.2329,0.2319,0.2296,0.2295,0.2291,0.2267,0.2259,0.2251,0.2184,0.2173,0.2218,0.2212,0.2122,0.2113,0.2104,0.216,0.2055,0.2052,0.205,0.2065,0.2068,0.207,0,0,0,0,0,0,0.233,0.2327,0.2297,0.2308,0.2304,0.2268,0.2259,0.2252,0.2253,0.2184,0.217,0.2227,0.212,0.2109,0.2111,0.2153,0.2051,0.2048,0.2063,0.2066,0.2069,0.2253,0,0,0,0,0,0,0.2331,0.2327,0.2333,0.2309,0.2304,0.2331,0.2262,0.2253,0.2257,0.225,0.2188,0.2173,0.2117,0.2117,0.2109,0.2148,0.2046,0.206,0.2064,0.2068,0.2245,0.2263,0.2278,0,0,0,0,0,0.2332,0.2359,0.2333,0.2331,0.2309,0.2333,0.2332,0.2296,0.2261,0.2284,0.2242,0.2176,0.2135,0.2117,0.2107,0.2146,0.2058,0.2063,0.2068,0.2237,0.2259,0.2277,0,0,0,0,0,0,0.2384,0.2353,0.2324,0.234,0.2344,0.2321,0.2344,0.2316,0.2303,0.2293,0.2214,0.22,0.2219,0.216,0.2142,0.216,0.2082,0.2085,0.2214,0.2234,0.225,0.2248,0.2043,0,0,0,0,0,0.2397,0.2403,0.2379,0.2399,0.2404,0.2376,0.2382,0.2362,0.2345,0.2336,0.2292,0.2248,0.2233,0.2216,0.2193,0.2208,0.2204,0.2222,0.2239,0.2253,0.2245,0.23,0.2322,0.2086,0.2086,0.2086,0,0,0.2429,0.241,0.2416,0.2411,0.2408,0.243,0.2374,0.2402,0.2414,0.2326,0.2338,0.2314,0.2254,0.2276,0.2276,0.2229,0.233,0.2259,0.2273,0.2256,0.2307,0.2331,0.2351,0.2089,0.2089,0.2088,0,0,0.2497,0.2476,0.2501,0.2509,0.2511,0.2495,0.2509,0.2498,0.2487,0.2506,0.2449,0.2459,0.2418,0.2397,0.2375,0.2469,0.2427,0.2454,0.2527,0.2583,0.2603,0.262,0.2705,0.2728,0.245,0.2451,0.2451,0,0.2537,0.2539,0.2522,0.2549,0.2551,0.2528,0.2555,0.2563,0.2554,0.2549,0.2529,0.2512,0.2476,0.2496,0.2529,0.2509,0.2539,0.2461,0.2608,0.2624,0.2639,0.272,0.2744,0.246,0.2459,0.2458,0.2457,0,0.2608,0.2616,0.2644,0.2647,0.2661,0.2691,0.2684,0.2702,0.2683,0.2672,0.27,0.268,0.2653,0.2665,0.2623,0.2703,0.2696,0.2639,0.2564,0.2674,0.2753,0.2775,0.2474,0.247,0.2468,0.2465,0,0,0.2666,0.2684,0.2689,0.2681,0.2702,0.2709,0.2757,0.2765,0.2774,0.2799,0.2817,0.2835,0.2818,0.2794,0.2766,0.2817,0.2981,0.2778,0.2777,0.2876,0.3142,0.3111,0.313,0.2957,0.296,0.2963,0.3178,0,0.2714,0.2751,0.2754,0.2787,0.2793,0.2791,0.282,0.2834,0.2843,0.2868,0.288,0.2892,0.2869,0.2868,0.2928,0.2944,0.3034,0.2929,0.3004,0.3007,0.2977,0.3152,0.3017,0.3193,0.3198,0.3201,0.3204,0,0.2754,0.2765,0.2796,0.2794,0.2799,0.2822,0.2828,0.2858,0.2904,0.2915,0.2957,0.2958,0.3035,0.2998,0.3135,0.3071,0.313,0.3162,0.317,0.3077,0.3013,0.3069,0.323,0.3038,0.3235,0.3233,0.323,0,0.2733,0.2777,0.2782,0.279,0.2812,0.2818,0.2828,0.2864,0.2877,0.2949,0.2972,0.3056,0.3088,0.3183,0.325,0.3206,0.3411,0.3348,0.3396,0.3395,0.3258,0.3239,0.3241,0.3483,0.3483,0.3482,0.3482,0,0.2741,0.2742,0.2769,0.2769,0.2769,0.2796,0.2805,0.2835,0.289,0.2919,0.2987,0.3036,0.3136,0.3243,0.3313,0.3434,0.3471,0.3454,0.3458,0.3324,0.3309,0.3108,0.3028,0.349,0.3489,0.3487,0.3486,0,0.2696,0.2724,0.2722,0.2748,0.2752,0.2747,0.277,0.2785,0.2849,0.2901,0.2929,0.3047,0.319,0.3306,0.3468,0.35,0.3509,0.3653,0.3507,0.3489,0.3315,0.3251,0.3229,0.3142,0.3751,0.3752,0.3753,0,0.2662,0.2664,0.2686,0.268,0.2686,0.2689,0.2692,0.2751,0.2777,0.2902,0.2928,0.3085,0.318,0.3425,0.3535,0.3703,0.354,0.3651,0.3529,0.3327,0.326,0.3142,0.3059,0.3458,0.3456,0.3454,0.3453,0,0.2597,0.2613,0.2618,0.261,0.2609,0.2607,0.2625,0.264,0.2728,0.2788,0.29,0.2995,0.3235,0.333,0.3533,0.3611,0.3424,0.3622,0.3441,0.307,0.2913,0.2819,0.3314,0.3439,0.344,0.3441,0.3442,0.3442,0.2539,0.2528,0.254,0.2525,0.2522,0.2513,0.2488,0.2543,0.2582,0.2663,0.2813,0.2909,0.3066,0.3329,0.3407,0.3344,0.3365,0.3213,0.3179,0.3097,0.2915,0.34,0.349,0.3491,0.3493,0.3494,0.3495,0,0.2457,0.2457,0.2446,0.2422,0.2386,0.2417,0.2426,0.2403,0.2426,0.2559,0.2653,0.2731,0.2814,0.2929,0.2971,0.2884,0.2802,0.2766,0.2529,0.2491,0.2945,0.2824,0.2735,0.2736,0.2736,0.2736,0.2736,0.2736,0.2411,0.2378,0.2379,0.2294,0.2271,0.2196,0.2186,0.2189,0.2247,0.228,0.2311,0.2399,0.2474,0.2495,0.2395,0.2377,0.217,0.2117,0.2098,0.2335,0.2371,0.2404,0.2268,0.2064,0.2063,0.1534,0.153,0.1526]},{"header":{"parameterUnit":"m.s-1","parameterCategory":2,"la1":30.2991,"la2":30.254,"lo1":-89.0895,"lo2":-89.0444,"dy":0.0017,"dx":0.0017,"nx":28,"ny":28,"refTime":"2024-10-01T21:00:00:Z","depth":"0","parameterNumber":3,"parameterNumberName":"V-component_of_CURRENTS"},"data":[0,0,0,0,0,0,0,0,0,0,0,0,0,0,0,0,0,0,0,0,0,0,0,0,0,0,0,0,0,0,0,0,0,0,0,0,0,0,0,0,0,0,0,0,0,0,0,0,0,0,0,0,0,0,0,0,0,0,-0.0356,-0.0356,0,-0.0384,-0.0385,-0.0385,-0.041,-0.041,-0.0409,-0.0409,-0.0518,-0.0521,-0.0524,0,0,0,0,0,0,0,0,0,0,0,0,0,-0.0387,-0.0386,-0.0356,-0.0356,-0.0356,-0.0384,-0.0385,-0.0386,-0.041,-0.041,-0.0409,-0.0409,-0.0517,-0.052,-0.0524,0,0,0,0,0,0,0,0,0,0,0,0,0,-0.0393,-0.0385,-0.0356,-0.0369,-0.037,-0.0384,-0.0385,-0.0386,-0.041,-0.041,-0.0409,-0.0409,-0.0516,-0.052,-0.0524,-0.0553,0,0,-0.0538,-0.054,0,0,0,0,0,0,0,0,-0.0393,-0.0392,-0.0367,-0.0368,-0.0369,-0.039,-0.0435,-0.0445,-0.041,-0.0398,-0.0409,-0.0409,-0.048,-0.0488,-0.0497,-0.0558,-0.0563,-0.0538,-0.0541,-0.0543,-0.0544,0,0,0,0,0,0,0,-0.0392,-0.0392,-0.0371,-0.0367,-0.0368,-0.0395,-0.0395,-0.0437,-0.0444,-0.0399,-0.04,-0.0398,-0.0482,-0.0493,-0.05,-0.0565,-0.0538,-0.0542,-0.0545,-0.0546,-0.058,-0.0578,0,0,0,0,0,0,-0.0378,-0.0391,-0.037,-0.0371,-0.0377,-0.0394,-0.0395,-0.0386,-0.0442,-0.0448,-0.0398,-0.0399,-0.0485,-0.0495,-0.0504,-0.0485,-0.0543,-0.0547,-0.0549,-0.0582,-0.058,-0.0578,0,0,0,0,0,0,-0.0378,-0.0376,-0.0369,-0.0379,-0.038,-0.0392,-0.0384,-0.0387,-0.0395,-0.0439,-0.0448,-0.0402,-0.0485,-0.0498,-0.0517,-0.0492,-0.0549,-0.0553,-0.0584,-0.0581,-0.0579,-0.0484,0,0,0,0,0,0,-0.0379,-0.0375,-0.0369,-0.0378,-0.0378,-0.0376,-0.0383,-0.0387,-0.0392,-0.0394,-0.0445,-0.0455,-0.0486,-0.051,-0.0521,-0.0499,-0.0556,-0.0586,-0.0583,-0.058,-0.0489,-0.0478,-0.0469,0,0,0,0,0,-0.038,-0.0369,-0.0368,-0.0366,-0.0367,-0.0375,-0.0379,-0.039,-0.0392,-0.0398,-0.0413,-0.0453,-0.0496,-0.0512,-0.0526,-0.0504,-0.0588,-0.0584,-0.058,-0.0494,-0.048,-0.0469,0,0,0,0,0,0,-0.039,-0.0371,-0.037,-0.0357,-0.0364,-0.0378,-0.0383,-0.0387,-0.0404,-0.0407,-0.0444,-0.0455,-0.0458,-0.0494,-0.051,-0.05,-0.0545,-0.0543,-0.0474,-0.0462,-0.0452,-0.0438,-0.056,0,0,0,0,0,-0.0385,-0.0366,-0.0365,-0.0358,-0.0359,-0.0371,-0.0375,-0.0382,-0.0395,-0.0402,-0.0427,-0.0447,-0.0453,-0.0467,-0.0489,-0.0499,-0.0526,-0.0488,-0.0478,-0.0469,-0.0464,-0.0472,-0.0463,-0.0565,-0.0565,-0.0565,0,0,-0.0396,-0.0375,-0.0372,-0.0358,-0.0366,-0.0357,-0.0375,-0.0382,-0.036,-0.0414,-0.0401,-0.0422,-0.0446,-0.044,-0.0445,-0.0469,-0.0452,-0.0464,-0.0456,-0.0456,-0.0467,-0.0457,-0.0449,-0.0562,-0.0563,-0.0563,0,0,-0.0399,-0.0382,-0.037,-0.0364,-0.036,-0.0356,-0.0354,-0.0362,-0.0352,-0.0348,-0.0359,-0.0357,-0.0392,-0.0384,-0.0387,-0.0338,-0.0397,-0.0348,-0.0292,-0.0299,-0.0291,-0.0285,-0.0299,-0.0295,-0.0344,-0.0344,-0.0344,0,-0.0411,-0.0379,-0.0374,-0.0356,-0.0337,-0.0349,-0.033,-0.0323,-0.0331,-0.0306,-0.0334,-0.0328,-0.0356,-0.0316,-0.0291,-0.0315,-0.0337,-0.0337,-0.0287,-0.0281,-0.0276,-0.0292,-0.0289,-0.0339,-0.0339,-0.034,-0.034,0,-0.0401,-0.0374,-0.0367,-0.033,-0.0317,-0.0304,-0.0283,-0.0263,-0.0252,-0.0241,-0.0209,-0.0237,-0.0233,-0.0231,-0.025,-0.0211,-0.0244,-0.0273,-0.0319,-0.026,-0.0281,-0.0279,-0.0332,-0.0333,-0.0335,-0.0336,0,0,-0.042,-0.0367,-0.0361,-0.0326,-0.0291,-0.0274,-0.0225,-0.0175,-0.0127,-0.0139,-0.0085,-0.0084,-0.0106,-0.011,-0.0132,-0.0133,-0.0112,-0.0185,-0.0188,-0.0202,-0.0137,-0.0122,-0.0119,-0.0139,-0.0138,-0.0137,-0.0165,0,-0.0407,-0.0349,-0.0325,-0.0267,-0.0232,-0.0201,-0.0146,-0.0102,-0.0072,-0.0029,-0.0033,-0.0013,-0.0057,-0.0058,-0.0061,-0.0096,-0.0103,-0.0103,-0.0191,-0.0194,-0.019,-0.0115,-0.0088,-0.0107,-0.0163,-0.0163,-0.0163,0,-0.039,-0.0343,-0.0282,-0.0192,-0.0175,-0.0142,-0.0035,0.0006,0.0067,0.0085,0.01,0.008,0.0093,0.0031,-0.0,-0.0002,-0.0063,-0.0099,-0.0102,-0.012,-0.0174,-0.0177,-0.0101,-0.0214,-0.016,-0.016,-0.016,0,-0.0368,-0.0301,-0.0236,-0.0211,-0.013,-0.0081,-0.0034,0.0042,0.01,0.0145,0.0176,0.0172,0.0167,0.0108,0.004,0.001,-0.0004,-0.0061,-0.0103,-0.0105,-0.0114,-0.0116,-0.0159,-0.0094,-0.0094,-0.0094,-0.0094,0,-0.0332,-0.0282,-0.0221,-0.0184,-0.0096,-0.0054,0.0042,0.0092,0.0162,0.0242,0.0221,0.0275,0.0183,0.0165,0.0078,0.0017,0.0022,-0.0074,-0.0099,-0.0078,-0.0077,-0.0204,-0.027,-0.0095,-0.0094,-0.0094,-0.0094,0,-0.0314,-0.0275,-0.02,-0.0114,-0.0084,-0.0024,0.0081,0.0155,0.0207,0.0306,0.0318,0.0348,0.034,0.0257,0.0172,0.0077,-0.0039,-0.0026,0.0007,-0.0012,-0.0167,-0.0229,-0.0269,-0.031,-0.0084,-0.0084,-0.0083,0,-0.0295,-0.0256,-0.0161,-0.0108,-0.0068,0.0019,0.0094,0.0168,0.0251,0.037,0.0428,0.0446,0.0499,0.0394,0.0249,0.0118,-0.0,0.0013,-0.0036,-0.0147,-0.0235,-0.0264,-0.0299,-0.0018,-0.0017,-0.0016,-0.0016,0,-0.0258,-0.0231,-0.0168,-0.0066,0.0014,0.0109,0.0215,0.0287,0.0395,0.0498,0.0633,0.0682,0.0598,0.0523,0.0335,0.0213,-0.0041,0.0022,-0.0101,-0.0177,-0.0204,-0.0265,-0.0042,-0.0009,-0.001,-0.0011,-0.0011,-0.0011,-0.0234,-0.0187,-0.0104,-0.0006,0.0088,0.0212,0.0312,0.0439,0.0594,0.0795,0.0806,0.0948,0.0767,0.0544,0.035,0.0009,0.0008,-0.0106,-0.017,-0.0188,-0.0221,0.0024,0.0034,0.0034,0.0033,0.0033,0.0033,0,-0.019,-0.0131,-0.004,0.0089,0.0205,0.0244,0.0414,0.0539,0.0751,0.0942,0.109,0.1113,0.0886,0.0578,0.0133,-0.0124,-0.0238,-0.0278,-0.0333,-0.0362,-0.0153,-0.0144,-0.0162,-0.0162,-0.0161,-0.0161,-0.0161,-0.0161,-0.0158,-0.0067,-0.0017,0.0173,0.0271,0.0449,0.056,0.0747,0.0919,0.1189,0.1322,0.1381,0.1125,0.036,-0.0192,-0.0337,-0.0516,-0.053,-0.0632,-0.0525,-0.0515,-0.0505,-0.0513,-0.0607,-0.0608,-0.0798,-0.0801,-0.0803]}],[{"header":{"parameterUnit":"m.s-1","parameterCategory":2,"la1":30.2991,"la2":30.254,"lo1":-89.0895,"lo2":-89.0444,"dy":0.0017,"dx":0.0017,"nx":28,"ny":28,"refTime":"2024-10-01T21:00:00:Z","depth":"2","parameterNumber":2,"parameterNumberName":"U-component_of_CURRENTS"},"data":[0,0,0,0,0,0,0,0,0,0,0,0,0,0,0,0,0,0,0,0,0,0,0,0,0,0,0,0,0,0,0,0,0,0,0,0,0,0,0,0,0,0,0,0,0,0,0,0,0,0,0,0,0,0,0,0,0,0,0.1827,0.1827,0,0.1862,0.1862,0.1863,0.1886,0.1886,0.1886,0.1886,0.1988,0.1991,0.1993,0,0,0,0,0,0,0,0,0,0,0,0,0,0.1789,0.179,0.1827,0.1827,0.1827,0.1862,0.1862,0.1863,0.1886,0.1886,0.1886,0.1886,0.1987,0.199,0.1993,0,0,0,0,0,0,0,0,0,0,0,0,0,0.1813,0.179,0.1827,0.1843,0.1845,0.1862,0.1862,0.1863,0.1885,0.1886,0.1886,0.1886,0.1986,0.199,0.1994,0.2014,0,0,0.2006,0.2008,0,0,0,0,0,0,0,0,0.1812,0.1815,0.184,0.1842,0.1844,0.1869,0.1886,0.1917,0.1885,0.187,0.1886,0.1886,0.1954,0.1961,0.1966,0.2019,0.2023,0.2006,0.2009,0.201,0.2011,0,0,0,0,0,0,0,0.181,0.1813,0.1841,0.184,0.1843,0.1852,0.1855,0.1892,0.1912,0.1872,0.1873,0.1877,0.1956,0.1962,0.1969,0.2025,0.2006,0.201,0.2012,0.2013,0.2181,0.2183,0,0,0,0,0,0,0.1805,0.1812,0.184,0.1842,0.1828,0.1852,0.1856,0.1861,0.191,0.1917,0.1877,0.1878,0.1956,0.1965,0.1973,0.2126,0.201,0.2014,0.2016,0.2179,0.2181,0.2184,0,0,0,0,0,0,0.1804,0.1807,0.1838,0.1827,0.1832,0.1853,0.1858,0.1862,0.1891,0.1913,0.1922,0.1904,0.1956,0.1967,0.2066,0.2125,0.2016,0.2019,0.2176,0.218,0.2182,0.2351,0,0,0,0,0,0,0.1803,0.1806,0.1819,0.1827,0.1832,0.1893,0.1858,0.1862,0.1891,0.1893,0.194,0.1948,0.1957,0.2061,0.207,0.2128,0.2022,0.2174,0.2178,0.2181,0.2342,0.2359,0.2373,0,0,0,0,0,0.1801,0.1835,0.182,0.1824,0.1845,0.1895,0.1901,0.1915,0.1892,0.1935,0.1974,0.1947,0.209,0.2068,0.2077,0.2138,0.2172,0.2177,0.2181,0.2335,0.2356,0.2373,0,0,0,0,0,0,0.1837,0.1841,0.1824,0.1858,0.1887,0.19,0.1944,0.1928,0.1986,0.1997,0.1999,0.2014,0.2119,0.2098,0.2072,0.2191,0.2116,0.2123,0.2229,0.2249,0.2264,0.2259,0.2025,0,0,0,0,0,0.1843,0.1869,0.1874,0.1908,0.1929,0.1931,0.1952,0.1959,0.1999,0.2023,0.2057,0.2088,0.214,0.2173,0.2217,0.2292,0.2296,0.2325,0.234,0.2354,0.2354,0.2414,0.2436,0.2199,0.2199,0.2199,0,0,0.1867,0.1873,0.1888,0.1918,0.1942,0.2014,0.1948,0.2005,0.207,0.2028,0.2151,0.216,0.2174,0.2273,0.2313,0.2269,0.2435,0.236,0.2372,0.2364,0.2422,0.2445,0.2466,0.2202,0.2202,0.2201,0,0,0.1926,0.1939,0.1973,0.2017,0.2057,0.2088,0.2108,0.2143,0.217,0.227,0.2255,0.2305,0.2386,0.2407,0.2424,0.2542,0.2523,0.254,0.2617,0.2678,0.2698,0.2716,0.2807,0.2832,0.2539,0.2539,0.2539,0,0.1956,0.2008,0.1999,0.2059,0.2125,0.2131,0.2217,0.2257,0.2321,0.2337,0.2342,0.2431,0.2453,0.2535,0.2581,0.2582,0.2616,0.2554,0.2701,0.2718,0.2734,0.2822,0.2847,0.2548,0.2547,0.2546,0.2545,0,0.2042,0.2104,0.2152,0.2238,0.2296,0.2397,0.2443,0.2498,0.2531,0.2542,0.2626,0.2656,0.2683,0.2705,0.2693,0.2791,0.2785,0.2727,0.2661,0.2769,0.2855,0.2878,0.256,0.2557,0.2555,0.2552,0,0,0.2069,0.2192,0.2212,0.2272,0.2416,0.2461,0.259,0.2676,0.2711,0.2781,0.2838,0.2919,0.287,0.2882,0.2857,0.2911,0.3077,0.2871,0.287,0.2975,0.325,0.2938,0.2933,0.3049,0.3052,0.3055,0.3287,0,0.216,0.2309,0.2349,0.2518,0.2614,0.2671,0.2768,0.2825,0.2881,0.2943,0.2948,0.3004,0.2957,0.2963,0.3019,0.3045,0.3136,0.3022,0.3115,0.3119,0.2838,0.2946,0.2743,0.2902,0.3309,0.3313,0.3316,0,0.222,0.2329,0.2512,0.2634,0.2673,0.2763,0.289,0.2968,0.3035,0.3057,0.3098,0.3097,0.3178,0.3122,0.3257,0.3186,0.3242,0.3273,0.3281,0.2934,0.2845,0.2846,0.2927,0.3353,0.335,0.3347,0.3345,0,0.2251,0.2416,0.2576,0.2647,0.2804,0.285,0.2915,0.2988,0.3016,0.312,0.314,0.323,0.3251,0.3349,0.3363,0.3346,0.3505,0.3486,0.3284,0.3266,0.3074,0.3027,0.3624,0.3624,0.3623,0.3622,0.3622,0,0.2361,0.2477,0.2584,0.2695,0.2787,0.2863,0.2936,0.2993,0.3059,0.3089,0.317,0.3209,0.3303,0.3368,0.3434,0.3386,0.3562,0.3315,0.3292,0.3125,0.3082,0.3427,0.3401,0.3631,0.3629,0.3628,0.3626,0,0.2407,0.252,0.265,0.279,0.2814,0.2859,0.2911,0.2934,0.3014,0.3069,0.3102,0.3211,0.3269,0.3331,0.3476,0.3403,0.3447,0.34,0.3187,0.3126,0.3189,0.317,0.3256,0.3247,0.3239,0.3232,0.3227,0,0.2473,0.2554,0.2665,0.2687,0.276,0.2813,0.2827,0.2905,0.2923,0.3051,0.3069,0.3147,0.3139,0.3188,0.3127,0.3153,0.3285,0.2937,0.2819,0.3176,0.3148,0.3141,0.3132,0.2719,0.271,0.2703,0.2697,0,0.2556,0.2568,0.2654,0.2678,0.2702,0.2713,0.2743,0.2754,0.2843,0.288,0.2952,0.2972,0.2953,0.2809,0.2717,0.2718,0.2896,0.2768,0.3264,0.2744,0.2659,0.2633,0.2647,0.2629,0.2636,0.2641,0.2644,0.2647,0.2554,0.2561,0.2603,0.2617,0.2627,0.2599,0.258,0.2606,0.2612,0.2601,0.2717,0.2625,0.2614,0.2308,0.2262,0.2219,0.2406,0.2349,0.2381,0.2419,0.2215,0.2108,0.1945,0.1948,0.195,0.1952,0.1954,0,0.2517,0.2525,0.2525,0.2516,0.2475,0.2515,0.2505,0.2448,0.2425,0.2357,0.2323,0.2032,0.188,0.1909,0.1734,0.1677,0.1767,0.1624,0.178,0.1845,0.1903,0.168,0.1267,0.1265,0.1263,0.1261,0,0,0.2508,0.2475,0.2456,0.2368,0.2357,0.2272,0.2255,0.2172,0.2098,0.1892,0.1752,0.1719,0.18,0.1487,0.1451,0.1349,0.1595,0.129,0.1841,0.2089,0.2145,0.2311,0.2033,0,0,0,0,0]},{"header":{"parameterUnit":"m.s-1","parameterCategory":2,"la1":30.2991,"la2":30.254,"lo1":-89.0895,"lo2":-89.0444,"dy":0.0017,"dx":0.0017,"nx":28,"ny":28,"refTime":"2024-10-01T21:00:00:Z","depth":"2","parameterNumber":3,"parameterNumberName":"V-component_of_CURRENTS"},"data":[0,0,0,0,0,0,0,0,0,0,0,0,0,0,0,0,0,0,0,0,0,0,0,0,0,0,0,0,0,0,0,0,0,0,0,0,0,0,0,0,0,0,0,0,0,0,0,0,0,0,0,0,0,0,0,0,0,0,0.0215,0.0215,0,0.0208,0.0208,0.0208,0.017,0.0169,0.0169,0.0168,-0.0059,-0.0064,-0.0069,0,0,0,0,0,0,0,0,0,0,0,0,0,0.0193,0.0193,0.0215,0.0215,0.0215,0.0208,0.0208,0.0208,0.017,0.0169,0.0168,0.0168,-0.0057,-0.0063,-0.007,0,0,0,0,0,0,0,0,0,0,0,0,0,0.0193,0.0193,0.0215,0.0198,0.0196,0.0208,0.0208,0.0207,0.017,0.0169,0.0168,0.0167,-0.0055,-0.0063,-0.0071,-0.0101,0,0,-0.0096,-0.0099,0,0,0,0,0,0,0,0,0.0193,0.0194,0.02,0.0199,0.0197,0.0191,0.0117,0.0094,0.017,0.0177,0.0168,0.0167,0.0007,-0.0006,-0.0006,-0.0112,-0.0121,-0.0096,-0.0101,-0.0105,-0.0107,0,0,0,0,0,0,0,0.0193,0.0194,0.021,0.02,0.0199,0.019,0.0188,0.0113,0.0091,0.0177,0.0174,0.0178,0.0004,0.0002,-0.0012,-0.0125,-0.0096,-0.0103,-0.0108,-0.0111,-0.0318,-0.0318,0,0,0,0,0,0,0.0201,0.0194,0.021,0.021,0.0196,0.0191,0.0189,0.0192,0.0097,0.0084,0.0179,0.0177,0.0017,-0.0003,-0.0021,-0.0097,-0.0105,-0.0112,-0.0117,-0.0317,-0.0318,-0.0318,0,0,0,0,0,0,0.0201,0.0203,0.021,0.0204,0.0204,0.0193,0.0196,0.0192,0.0184,0.0102,0.0084,0.0173,0.0015,-0.0009,-0.0111,-0.0105,-0.0116,-0.0123,-0.0316,-0.0317,-0.0318,-0.0228,0,0,0,0,0,0,0.02,0.0202,0.0205,0.0204,0.0205,0.0217,0.0197,0.0193,0.0189,0.0185,0.009,0.007,0.0012,-0.0098,-0.0119,-0.0116,-0.013,-0.0316,-0.0317,-0.0318,-0.023,-0.0226,-0.0222,0,0,0,0,0,0.0199,0.0211,0.0206,0.0208,0.021,0.0218,0.0217,0.0203,0.019,0.019,0.0108,0.0072,-0.0119,-0.0106,-0.013,-0.0129,-0.0315,-0.0316,-0.0318,-0.0232,-0.0227,-0.0222,0,0,0,0,0,0,0.0204,0.0209,0.0202,0.0215,0.0215,0.0212,0.0216,0.0205,0.0149,0.0136,0.005,0.0022,-0.0059,-0.0114,-0.0097,-0.0193,-0.0217,-0.0223,-0.0144,-0.014,-0.0136,-0.0095,-0.0136,0,0,0,0,0,0.0208,0.0215,0.0218,0.0226,0.023,0.0222,0.0223,0.0217,0.0174,0.0152,0.0077,-0.0005,-0.0079,-0.0126,-0.02,-0.0262,-0.0264,-0.0275,-0.027,-0.0266,-0.025,-0.0257,-0.025,-0.0323,-0.0323,-0.0323,0,0,0.0216,0.0216,0.0222,0.0227,0.0227,0.0247,0.0219,0.0228,0.0221,0.013,0.0072,-0.0001,-0.0095,-0.016,-0.02,-0.0208,-0.0242,-0.0268,-0.0263,-0.025,-0.0257,-0.025,-0.0243,-0.0324,-0.0324,-0.0323,0,0,0.0257,0.0233,0.0269,0.0266,0.0273,0.0263,0.0267,0.0254,0.022,0.0155,0.0097,0.0032,-0.0102,-0.014,-0.0183,-0.0203,-0.0222,-0.0234,-0.018,-0.0186,-0.0179,-0.0173,-0.0134,-0.0126,-0.0228,-0.0228,-0.0228,0,0.0274,0.0303,0.0278,0.0309,0.0307,0.0274,0.0306,0.0274,0.0219,0.0188,0.0136,-0.0005,-0.0083,-0.0129,-0.0138,-0.0188,-0.0186,-0.0187,-0.0175,-0.017,-0.0165,-0.0128,-0.0119,-0.0224,-0.0224,-0.0225,-0.0225,0,0.034,0.0362,0.0377,0.0397,0.0389,0.0404,0.0364,0.0331,0.0269,0.0236,0.0153,0.0052,-0.0025,-0.0055,-0.0114,-0.0114,-0.0119,-0.0166,-0.0175,-0.0151,-0.0114,-0.0107,-0.0218,-0.022,-0.0221,-0.0222,0,0,0.0403,0.0424,0.0428,0.0445,0.043,0.0431,0.0402,0.0374,0.0362,0.0271,0.0255,0.0126,0.0084,0.0034,-0.0028,-0.0035,0.0004,-0.0083,-0.0086,-0.002,0.0025,-0.0056,-0.0055,-0.0045,-0.0044,-0.0044,0.0051,0,0.0471,0.0537,0.0513,0.0554,0.0592,0.0521,0.0493,0.045,0.0388,0.0357,0.0265,0.0214,0.0114,0.0087,0.006,0.001,0.0021,-0.0015,-0.003,-0.0029,-0.0084,-0.0051,-0.0062,0.0012,0.0058,0.0059,0.006,0,0.056,0.0587,0.0639,0.0633,0.0635,0.0619,0.0565,0.054,0.0485,0.0442,0.039,0.0326,0.0289,0.0206,0.0149,0.0126,0.0087,0.0056,0.0058,-0.0044,-0.0099,-0.0015,0.0024,0.0072,0.0071,0.007,0.0069,0,0.0633,0.0673,0.0701,0.0699,0.0686,0.0649,0.0612,0.0556,0.054,0.0513,0.0523,0.0448,0.0421,0.0348,0.0249,0.0203,0.0221,0.0146,0.0054,0.0051,0.0025,0.0015,0.0139,0.0139,0.0139,0.0139,0.0138,0,0.0717,0.0744,0.0722,0.0737,0.0737,0.0693,0.0672,0.0639,0.0618,0.0643,0.0568,0.0595,0.0451,0.0425,0.0326,0.0219,0.0274,0.0085,0.0063,0.0055,0.0047,0.0068,0.0058,0.0142,0.0142,0.0141,0.014,0,0.0795,0.0789,0.0836,0.0806,0.078,0.077,0.0707,0.0715,0.0687,0.0734,0.0738,0.0713,0.0666,0.0551,0.0467,0.0317,0.0234,0.0195,0.0213,0.0187,0.0058,0.0052,0.009,0.0088,0.0086,0.0085,0.0083,0,0.0832,0.087,0.0876,0.0885,0.0854,0.0818,0.0804,0.0753,0.0782,0.0814,0.0869,0.0841,0.0844,0.0691,0.0447,0.0284,0.0271,0.0145,0.0017,0.0075,0.0051,0.0047,0.0044,0.0054,0.0052,0.0051,0.005,0,0.0906,0.0908,0.0934,0.0958,0.0943,0.094,0.0914,0.0957,0.0939,0.1016,0.1103,0.1112,0.0912,0.0706,0.0431,0.0302,0.0149,0.0107,0.02,0.0031,0.0037,0.0013,0.0012,0.0039,0.004,0.0041,0.0042,0.0042,0.0937,0.097,0.0998,0.1015,0.1012,0.1037,0.1054,0.1098,0.1181,0.1248,0.125,0.1223,0.0951,0.0549,0.0344,0.0079,0.007,-0.0045,-0.0039,-0.0032,-0.009,-0.0093,-0.012,-0.0119,-0.0119,-0.0119,-0.0119,0,0.0956,0.0982,0.1038,0.1055,0.1079,0.1041,0.1107,0.1174,0.1307,0.1323,0.1354,0.1088,0.0849,0.057,0.0146,-0.0099,-0.0094,-0.0155,-0.0099,-0.0089,-0.008,-0.0139,-0.0181,-0.0182,-0.0182,-0.0183,0,0,0.0961,0.1013,0.1052,0.1089,0.1084,0.1099,0.1141,0.1294,0.134,0.138,0.1291,0.1161,0.0845,0.0526,0.0232,0.0023,0.0023,-0.0017,0.0049,0.0158,0.017,-0.0011,-0.0091,0,0,0,0,0]}],[{"header":{"parameterUnit":"m.s-1","parameterCategory":2,"la1":30.2991,"la2":30.254,"lo1":-89.0895,"lo2":-89.0444,"dy":0.0017,"dx":0.0017,"nx":28,"ny":28,"refTime":"2024-10-01T21:00:00:Z","depth":"4","parameterNumber":2,"parameterNumberName":"U-component_of_CURRENTS"},"data":[0,0,0,0,0,0,0,0,0,0,0,0,0,0,0,0,0,0,0,0,0,0,0,0,0,0,0,0,0,0,0,0,0,0,0,0,0,0,0,0,0,0,0,0,0,0,0,0,0,0,0,0,0,0,0,0,0,0,0.0851,0.0852,0,0.085,0.085,0.0849,0.0849,0.0849,0.085,0.085,0.0802,0.08,0.0798,0,0,0,0,0,0,0,0,0,0,0,0,0,0.0836,0.0836,0.0851,0.0852,0.0852,0.085,0.085,0.0849,0.0849,0.0849,0.085,0.085,0.0802,0.08,0.0798,0,0,0,0,0,0,0,0,0,0,0,0,0,0.0834,0.0836,0.0851,0.0856,0.0857,0.085,0.085,0.0849,0.0849,0.0849,0.085,0.0851,0.0803,0.08,0.0798,0.0766,0,0,0.079,0.0789,0,0,0,0,0,0,0,0,0.0834,0.0834,0.0855,0.0856,0.0857,0.0855,0.0827,0.0821,0.0848,0.0846,0.085,0.0851,0.0818,0.0814,0.0805,0.0764,0.0762,0.079,0.0788,0.0787,0.0786,0,0,0,0,0,0,0,0.0834,0.0834,0.0845,0.0855,0.0856,0.0852,0.0853,0.0825,0.0823,0.0846,0.0847,0.0856,0.0818,0.0808,0.0804,0.0761,0.079,0.0787,0.0786,0.0785,0.0791,0.0793,0,0,0,0,0,0,0.0846,0.0834,0.0846,0.0846,0.0853,0.0853,0.0852,0.085,0.0824,0.0823,0.0855,0.0856,0.0812,0.0807,0.0802,0.0823,0.0787,0.0784,0.0783,0.0789,0.0791,0.0793,0,0,0,0,0,0,0.0845,0.0846,0.0846,0.0845,0.0846,0.0853,0.085,0.085,0.0869,0.0832,0.0829,0.0878,0.0812,0.0806,0.0795,0.0819,0.0783,0.0781,0.0787,0.079,0.0792,0.0827,0,0,0,0,0,0,0.0844,0.0846,0.0856,0.0845,0.0846,0.0858,0.085,0.085,0.0874,0.0875,0.085,0.0845,0.0813,0.0799,0.0792,0.0815,0.0779,0.0785,0.0788,0.0792,0.0823,0.083,0.0836,0,0,0,0,0,0.0844,0.085,0.0856,0.0859,0.0857,0.0859,0.0859,0.0862,0.0875,0.0882,0.0865,0.0847,0.0816,0.0797,0.0789,0.0812,0.0783,0.0787,0.0791,0.082,0.0829,0.0836,0,0,0,0,0,0,0.0836,0.0851,0.0857,0.0865,0.0873,0.0862,0.0874,0.0881,0.0874,0.088,0.0848,0.0841,0.0836,0.0829,0.0809,0.083,0.0806,0.0808,0.0831,0.0838,0.0845,0.0883,0.0776,0,0,0,0,0,0.0843,0.0862,0.0866,0.0875,0.0883,0.0886,0.0893,0.0897,0.0889,0.0889,0.0869,0.0859,0.0842,0.0845,0.0818,0.0826,0.0828,0.0846,0.0853,0.0858,0.0888,0.0896,0.0905,0.0806,0.0806,0.0806,0,0,0.0847,0.0856,0.0869,0.0878,0.0884,0.0876,0.0891,0.0909,0.0905,0.0882,0.0874,0.0864,0.0845,0.0842,0.0845,0.0845,0.0888,0.0863,0.0867,0.0895,0.0901,0.091,0.0918,0.0809,0.0808,0.0808,0,0,0.0845,0.0869,0.0877,0.0879,0.0898,0.0896,0.0911,0.0912,0.0924,0.0919,0.0901,0.0932,0.089,0.0901,0.0897,0.0935,0.0905,0.0921,0.0997,0.1003,0.1011,0.1018,0.1029,0.1037,0.0942,0.0943,0.0943,0,0.0844,0.0849,0.088,0.0872,0.0876,0.0907,0.0899,0.0907,0.0904,0.0946,0.0924,0.0933,0.0929,0.095,0.0974,0.0951,0.0938,0.0959,0.1009,0.1017,0.1023,0.1033,0.1041,0.0945,0.0944,0.0944,0.0944,0,0.083,0.0837,0.0842,0.0843,0.0852,0.0858,0.087,0.0893,0.092,0.096,0.1001,0.0985,0.1024,0.1015,0.1006,0.106,0.1029,0.0996,0.0984,0.1035,0.1042,0.105,0.0948,0.0947,0.0946,0.0946,0,0,0.0808,0.0829,0.0829,0.0839,0.084,0.0853,0.086,0.0915,0.0973,0.0988,0.1059,0.1068,0.1129,0.1132,0.1121,0.1137,0.1184,0.11,0.1099,0.1103,0.1189,0.1091,0.1089,0.1135,0.1136,0.1138,0.1173,0,0.0785,0.077,0.079,0.0792,0.0787,0.0826,0.0843,0.0908,0.0968,0.1047,0.1105,0.116,0.1149,0.1179,0.12,0.1188,0.1207,0.1178,0.115,0.115,0.1048,0.1096,0.1143,0.1179,0.1181,0.1182,0.1183,0,0.0755,0.0751,0.0743,0.0792,0.0801,0.0814,0.0895,0.0929,0.106,0.1106,0.1198,0.1253,0.1335,0.1284,0.1317,0.1288,0.1267,0.1235,0.1234,0.1143,0.1066,0.1122,0.1197,0.1196,0.1195,0.1194,0.1193,0,0.0719,0.073,0.0735,0.0736,0.078,0.0818,0.0869,0.0978,0.1041,0.1179,0.1241,0.1334,0.1381,0.1373,0.1371,0.1349,0.1356,0.1321,0.1204,0.1196,0.1257,0.125,0.133,0.133,0.133,0.133,0.133,0,0.0675,0.0685,0.0732,0.0728,0.0773,0.083,0.0929,0.0976,0.1093,0.1187,0.1303,0.1337,0.1399,0.1426,0.1399,0.1334,0.1394,0.1239,0.1204,0.1271,0.1264,0.1262,0.1254,0.1331,0.1331,0.1331,0.133,0,0.0629,0.0652,0.0666,0.0723,0.0753,0.0799,0.0929,0.0999,0.1111,0.121,0.1258,0.1372,0.1409,0.1434,0.1424,0.1362,0.131,0.1257,0.1347,0.1313,0.1145,0.1138,0.1169,0.1166,0.1163,0.1161,0.1159,0,0.0595,0.06,0.0653,0.0675,0.0706,0.0798,0.0854,0.0973,0.104,0.1199,0.1222,0.1329,0.1387,0.1318,0.1332,0.1289,0.1242,0.1221,0.1184,0.1168,0.1132,0.1129,0.1126,0.1155,0.1154,0.1153,0.1153,0,0.0537,0.0573,0.0585,0.0622,0.0673,0.0744,0.0839,0.087,0.1016,0.1116,0.1172,0.1216,0.1247,0.1258,0.1229,0.1182,0.1251,0.1194,0.1199,0.1164,0.1151,0.1117,0.1117,0.1144,0.1145,0.1146,0.1146,0,0.0506,0.0502,0.0536,0.0571,0.0626,0.0673,0.0738,0.0816,0.0894,0.1053,0.1055,0.115,0.1233,0.1198,0.1163,0.1131,0.1108,0.1053,0.1065,0.1075,0.1023,0.0992,0.0925,0,0,0,0,0,0.0476,0.0475,0.0491,0.0512,0.0564,0.0607,0.0716,0.0789,0.0908,0.0912,0.099,0.1016,0.1026,0.1067,0.1011,0.1098,0.1095,0.1025,0.1035,0.1094,0.1104,0.1047,0,0,0,0,0,0,0.0453,0.0465,0.0464,0.0465,0.0477,0.0532,0.0601,0.068,0.0708,0.0828,0.0843,0.0926,0.0951,0.1034,0.0981,0.0987,0.0965,0.1073,0.1069,0.1088,0.1097,0.1106,0.1051,0,0,0,0,0]},{"header":{"parameterUnit":"m.s-1","parameterCategory":2,"la1":30.2991,"la2":30.254,"lo1":-89.0895,"lo2":-89.0444,"dy":0.0017,"dx":0.0017,"nx":28,"ny":28,"refTime":"2024-10-01T21:00:00:Z","depth":"4","parameterNumber":3,"parameterNumberName":"V-component_of_CURRENTS"},"data":[0,0,0,0,0,0,0,0,0,0,0,0,0,0,0,0,0,0,0,0,0,0,0,0,0,0,0,0,0,0,0,0,0,0,0,0,0,0,0,0,0,0,0,0,0,0,0,0,0,0,0,0,0,0,0,0,0,0,0.028,0.028,0,0.0292,0.0293,0.0293,0.0312,0.0312,0.0312,0.0312,0.0343,0.0344,0.0345,0,0,0,0,0,0,0,0,0,0,0,0,0,0.0259,0.0259,0.028,0.028,0.028,0.0292,0.0293,0.0293,0.0311,0.0312,0.0312,0.0312,0.0343,0.0344,0.0345,0,0,0,0,0,0,0,0,0,0,0,0,0,0.027,0.0259,0.028,0.029,0.0291,0.0292,0.0293,0.0293,0.0311,0.0312,0.0312,0.0312,0.0343,0.0344,0.0345,0.0343,0,0,0.0347,0.0348,0,0,0,0,0,0,0,0,0.027,0.0271,0.0288,0.0289,0.029,0.03,0.0297,0.031,0.0311,0.0305,0.0312,0.0313,0.033,0.0332,0.0334,0.0345,0.0346,0.0348,0.0348,0.0349,0.0349,0,0,0,0,0,0,0,0.0269,0.0271,0.0286,0.0288,0.0289,0.0289,0.0292,0.0299,0.0316,0.0305,0.0306,0.0306,0.033,0.0333,0.0335,0.0347,0.0348,0.0348,0.0349,0.0349,0.0336,0.0335,0,0,0,0,0,0,0.0266,0.027,0.0285,0.0286,0.0279,0.0289,0.0292,0.0297,0.0316,0.0318,0.0306,0.0307,0.0332,0.0334,0.0337,0.0335,0.0349,0.0349,0.035,0.0337,0.0336,0.0335,0,0,0,0,0,0,0.0265,0.0267,0.0285,0.0277,0.0279,0.0289,0.0295,0.0297,0.0306,0.0316,0.0319,0.0313,0.0332,0.0335,0.0351,0.0336,0.035,0.0351,0.0338,0.0336,0.0335,0.0332,0,0,0,0,0,0,0.0265,0.0267,0.0272,0.0277,0.028,0.0294,0.0295,0.0297,0.0305,0.0306,0.0323,0.0326,0.0333,0.035,0.0352,0.0338,0.0351,0.0339,0.0337,0.0336,0.0334,0.0331,0.0329,0,0,0,0,0,0.0264,0.0277,0.0273,0.0275,0.0286,0.0294,0.0296,0.0304,0.0305,0.0313,0.0322,0.0326,0.0339,0.0351,0.0353,0.0339,0.034,0.0338,0.0336,0.0335,0.0332,0.0329,0,0,0,0,0,0,0.0277,0.0279,0.0276,0.029,0.0292,0.0297,0.0309,0.0306,0.0319,0.0323,0.033,0.0333,0.0336,0.0337,0.0349,0.0326,0.0333,0.0332,0.0331,0.0329,0.0326,0.0329,0.0352,0,0,0,0,0,0.0279,0.0288,0.0286,0.0299,0.0301,0.0302,0.0307,0.0309,0.0318,0.0324,0.0333,0.0333,0.0327,0.0331,0.0332,0.0331,0.0311,0.0316,0.0314,0.0312,0.0314,0.026,0.0253,0.0328,0.0328,0.0328,0,0,0.029,0.029,0.0298,0.0302,0.0307,0.0313,0.0308,0.0318,0.0319,0.0325,0.0339,0.0333,0.0326,0.0322,0.0321,0.0324,0.0281,0.0309,0.0308,0.0311,0.0257,0.025,0.0243,0.0327,0.0327,0.0327,0,0,0.0314,0.0316,0.0329,0.033,0.0332,0.0329,0.0331,0.0335,0.0335,0.0343,0.0335,0.0319,0.0332,0.0309,0.03,0.0283,0.0272,0.0281,0.0274,0.0221,0.0215,0.0209,0.0179,0.0171,0.0278,0.0278,0.0278,0,0.0329,0.0339,0.0335,0.0343,0.0347,0.0336,0.0347,0.0342,0.0349,0.0349,0.0351,0.0323,0.0319,0.0283,0.0278,0.0277,0.0258,0.0289,0.0218,0.0212,0.0206,0.0177,0.0168,0.0278,0.0278,0.0278,0.0278,0,0.0354,0.0363,0.0374,0.0377,0.0379,0.0389,0.0377,0.0373,0.0369,0.0367,0.0342,0.0316,0.0301,0.028,0.0282,0.0227,0.0232,0.0224,0.0228,0.0198,0.017,0.016,0.0277,0.0277,0.0277,0.0277,0,0,0.0387,0.0391,0.0395,0.0401,0.0396,0.0403,0.0395,0.039,0.0387,0.0368,0.0354,0.0314,0.0299,0.0285,0.0256,0.0202,0.0143,0.0202,0.0199,0.0178,0.0045,0.0048,0.0038,0.0126,0.0124,0.0122,0.0045,0,0.0409,0.0429,0.0422,0.0443,0.0452,0.0434,0.043,0.0421,0.0409,0.0395,0.0337,0.0326,0.03,0.0287,0.0226,0.0172,0.0117,0.0167,0.0073,0.007,0.0081,0.0026,0.0117,0.0037,0.0035,0.0033,0.0032,0,0.0433,0.0441,0.0467,0.0471,0.0475,0.0485,0.0473,0.0472,0.0442,0.0425,0.0383,0.036,0.0287,0.0263,0.0136,0.0173,0.0114,0.0057,0.0053,0.0051,0.0055,0.0071,0.0014,0.0016,0.0017,0.0018,0.0019,0,0.0455,0.0472,0.0494,0.0498,0.0501,0.0507,0.0512,0.0494,0.0493,0.0453,0.0445,0.036,0.0318,0.0219,0.0124,0.0133,-0.0021,-0.0023,-0.0085,-0.0084,-0.0059,-0.0052,-0.0127,-0.0127,-0.0126,-0.0126,-0.0126,0,0.0474,0.0492,0.0512,0.0525,0.0549,0.0547,0.0574,0.0546,0.0526,0.0528,0.0477,0.0432,0.0305,0.0216,0.0122,-0.0008,-0.0022,-0.0097,-0.0115,-0.0057,-0.0049,-0.0066,-0.0057,-0.0129,-0.0128,-0.0128,-0.0127,0,0.0488,0.0503,0.053,0.055,0.0562,0.0584,0.0617,0.0624,0.0606,0.0592,0.0583,0.0484,0.0365,0.0237,0.0069,-0.0003,-0.0131,-0.0176,-0.0094,-0.0104,-0.0156,-0.0147,-0.0251,-0.0251,-0.0252,-0.0253,-0.0253,0,0.0493,0.0513,0.0553,0.0577,0.0592,0.0637,0.0659,0.0655,0.0658,0.0618,0.0595,0.0495,0.042,0.0187,0.0048,-0.0138,-0.0165,-0.0218,-0.0204,-0.0167,-0.0174,-0.0164,-0.0154,-0.0254,-0.0254,-0.0255,-0.0255,0,0.0498,0.0521,0.0541,0.0595,0.0632,0.0675,0.0706,0.0705,0.0697,0.0687,0.0602,0.0494,0.0352,0.0179,0.0034,-0.0101,-0.0176,-0.0225,-0.0225,-0.0212,-0.0173,-0.0176,-0.0166,-0.0257,-0.0257,-0.0256,-0.0256,0,0.05,0.0517,0.0557,0.0604,0.0655,0.0688,0.0708,0.0705,0.0705,0.0652,0.062,0.0481,0.0396,0.0196,0.0058,-0.0069,-0.01,-0.013,-0.0135,-0.0134,-0.0077,-0.0008,-0.007,0,0,0,0,0,0.0498,0.0524,0.0564,0.0606,0.0658,0.0691,0.0723,0.0735,0.0727,0.0669,0.0646,0.0517,0.0312,0.0216,0.0087,0.004,-0.0125,-0.0115,-0.0162,-0.027,-0.0267,-0.022,0,0,0,0,0,0,0.0496,0.0533,0.0557,0.061,0.0642,0.0691,0.0714,0.0705,0.0673,0.0649,0.0536,0.0495,0.0287,0.0386,0.0086,0.0047,0.0002,-0.0209,-0.0211,-0.0271,-0.0269,-0.0267,-0.0217,0,0,0,0,0]}]]